Regional Weather Roundup
Issued by NWS Grand Forks, ND

Home | Current Version | Previous Version | Text Only | Print | Product List | Glossary Off
Versions: 1 2 3 4 5 6 7 8 9 10 11 12 13 14 15 16 17 18 19 20 21 22 23 24 25 26 27 28 29 30 31 32 33 34 35 36 37 38 39 40 41 42 43 44 45 46 47 48 49 50

000
ASUS43 KFGF 191831
RWRFGF
PRAIRIE TO PINES  WEATHER ROUNDUP
NATIONAL WEATHER SERVICE EASTERN NORTH DAKOTA/GRAND FORKS ND
100 PM CDT SAT APR 19 2014

 **SATELLITE DATA USED TO AUGMENT SKY COVER AT AUTOMATED STATIONS**
 *****  WEATHER ACROSS EASTERN NORTH DAKOTA  *****

CITY           SKY/WX    TMP DP  RH WIND       PRES   REMARKS
GRAND FORKS    MOSUNNY   61  35  37 W24G32    29.81S
6HR MIN TEMP:  43; 6HR MAX TEMP:  61;

GRAND FRKS AFB MOSUNNY   62  35  36 W22G31    29.82R
GRAND FRKS NWS   N/A     61 N/A N/A W32         N/A
DEVILS LAKE    MOSUNNY   54  37  54 W26G33    29.83R
6HR MIN TEMP:  36; 6HR MAX TEMP:  54;

FARGO          PTSUNNY   64  31  28 SW17      29.88R
WAHPETON ARPT  PTCLDY    64  25  22 W22       29.92R
$$

 ***** WEATHER ACROSS CENTRAL AND WESTERN NORTH DAKOTA  *****

CITY           SKY/WX    TMP DP  RH WIND       PRES   REMARKS
BISMARCK       SUNNY     62  29  28 W17G29    29.92S
6HR MIN TEMP:  38; 6HR MAX TEMP:  62;

MINOT          CLOUDY    48  37  65 W20       29.85R
6HR MIN TEMP:  37; 6HR MAX TEMP:  49; 6HR PCP: TRACE;

JAMESTOWN      MOSUNNY   61  32  33 W23G30    29.87S
6HR MIN TEMP:  40; 6HR MAX TEMP:  62;

MINOT AFB      CLOUDY    46  39  76 NW23G29   29.86R
GARRISON         N/A     49  36  61 W21G29    29.90R
WILLISTON      PTSUNNY   51  35  54 NW17G25   29.91R
6HR MIN TEMP:  37; 6HR MAX TEMP:  52;

DICKINSON      SUNNY     56  32  40 W24G37    29.91F
6HR MIN TEMP:  37; 6HR MAX TEMP:  56;

HETTINGER      SUNNY     59  28  30 W22G31    29.96F
6HR MIN TEMP:  31; 6HR MAX TEMP:  59;

$$

 *****  OTHER AIRPORT OBSERVATIONS IN OUR AREA  *****

CITY           SKY/WX    TMP DP  RH WIND       PRES   REMARKS
WALHALLA         N/A     54  37  54 W23G35    29.75S
GRAFTON AIRPOR MOCLDY    55  36  47 W28       29.80R
VALLEY CITY AR FAIR      61  32  33 W26G32    29.88R
CANDO          CLOUDY    48  37  66 W23G31    29.82R
CAVALIER APRT  FAIR      55  36  47 W22G35    29.76F
GWINNER        CLEAR     63  32  31 W21G26    29.93S
ROLLA          CLOUDY    46  39  76 W20G30    29.77R
 ***** THE ABOVE OBSERVATIONS ARE NON NWS ARE NOT QUALITY
       CONTROLLED AND MAY MIS-REPORT RAIN FOR SNOW...
$$

  *****  WEATHER ACROSS NORTHERN MINNESOTA  *****

CITY           SKY/WX    TMP DP  RH WIND       PRES   REMARKS
FLAG ISLAND    MOSUNNY   39  34  81 SE16      29.75S
WARROAD        SUNNY     57  41  54 SW18G30   29.77R
ROSEAU         MOSUNNY   57  43  58 SW21G30   29.78R
HALLOCK        CLOUDY    55  39  54 W29G36    29.78R
THF RVR FALLS  MOSUNNY   57  37  47 SW22G31   29.83R
6HR MIN TEMP:  45; 6HR MAX TEMP:  57;

BAUDETTE       MOSUNNY   53  41  63 S14G23    29.79S
6HR MIN TEMP:  35; 6HR MAX TEMP:  53; 6HR PCP: TRACE;

WASKISH        MOSUNNY   61  45  55 S13G20    29.82F
CROOKSTON      MOSUNNY   63  36  36 W24       29.83S
$$
  *****  WEATHER ACROSS CENTRAL AND WEST MINNESOTA  *****

CITY           SKY/WX    TMP DP  RH WIND       PRES   REMARKS
FOSSTON        MOSUNNY   61  32  33 SW21      29.86R
BEMIDJI        PTSUNNY   62  40  44 SW14G22   29.85S
PARK RAPIDS    MOSUNNY   60  44  55 SW17G24   29.89R
6HR MIN TEMP:  40; 6HR MAX TEMP:  60; 6HR PCP:  0.03;

ELBOW LAKE     FAIR      64  34  32 W16G25    29.93S
6HR MIN TEMP:  45; 6HR MAX TEMP:  63;

WADENA         MOSUNNY   59  45  58 SW12G23   29.91S
DETROIT LAKES  MOSUNNY   61  32  33 W13G21    29.90S
MOORHEAD       PTSUNNY   61  30  31 SW13      29.90R
FERGUS FALLS   MOSUNNY   64  25  22 W17       29.89S
MORRIS MN      PTSUNNY   63  41  45 W13       29.94R
STAPLES        PTSUNNY   55  45  67 S17G23    29.93S
$$
  *****  WEATHER ELSEWHERE ACROSS MINNESOTA  *****

CITY           SKY/WX    TMP DP  RH WIND       PRES   REMARKS
DULUTH         CLOUDY    37  29  72 SE14      30.03F
6HR MIN TEMP:  33; 6HR MAX TEMP:  37; 6HR PCP:  0.07;

INTRNTL FALLS  CLOUDY    41  32  70 S10G18    29.87F
6HR MIN TEMP:  34; 6HR MAX TEMP:  41; 6HR PCP: TRACE;

ELY            CLOUDY    36  28  75 S15       30.00S
CLOQUET        DRIZZLE   45  28  53 SE9       30.02S
WHEATON        MOSUNNY   68  36  30 W12       29.95S
BRAINERD       PTSUNNY   57  38  48 S21G29    29.96R
6HR MIN TEMP:  46; 6HR MAX TEMP:  58; 6HR PCP: TRACE;

HIBBING        CLOUDY    43  33  68 SE12G22   29.96F
6HR MIN TEMP:  34; 6HR MAX TEMP:  43; 6HR PCP:  0.12;

ALEXANDRIA     PTSUNNY   58  46  64 SW16      29.95R
6HR MIN TEMP:  46; 6HR MAX TEMP:  59; 6HR PCP:  0.01;

SAINT CLOUD    CLOUDY    51  40  65 SE10      29.98F
6HR MIN TEMP:  42; 6HR MAX TEMP:  51; 6HR PCP: TRACE;

MINNEAPOLIS    PTSUNNY   57  39  51 S16       30.05F
6HR MIN TEMP:  43; 6HR MAX TEMP:  57;

$$

  *****  WEATHER ACROSS SOUTH DAKOTA  *****

CITY           SKY/WX    TMP DP  RH WIND       PRES   REMARKS
SIOUX FALLS    PTSUNNY   68  44  42 NW16      29.98R
6HR MIN TEMP:  53; 6HR MAX TEMP:  70;

BROOKINGS      NOT AVBL
WATERTOWN      CLOUDY    59  32  36 NW14      29.98R
6HR MIN TEMP:  50; 6HR MAX TEMP:  60;

HURON          PTSUNNY   65  25  22 NW10      30.00S
6HR MIN TEMP:  50; 6HR MAX TEMP:  65;

SISSETON         N/A     65  29  25 NW13      29.94S
ABERDEEN       SUNNY     65  22  19 NW17G23   29.97S
6HR MIN TEMP:  41; 6HR MAX TEMP:  65;

MITCHELL       CLOUDY    62  35  36 NW12      30.03R
PIERRE         MOSUNNY   60  24  25 NW9       30.01S
6HR MIN TEMP:  41; 6HR MAX TEMP:  61;

MOBRIDGE       SUNNY     63  24  22 W17G26    29.94S
RAPID CITY     MOSUNNY   58  18  21 VRB3      30.04R
6HR MIN TEMP:  41; 6HR MAX TEMP:  60;

$$

  *****  SOME WEATHER IN NEARBY STATES *****

CITY           SKY/WX    TMP DP  RH WIND       PRES   REMARKS
GLASGOW MT     PTSUNNY   49  36  61 W12       29.94S
6HR MIN TEMP:  36; 6HR MAX TEMP:  49;

GREAT FALLS MT SUNNY     55  14  19 SW13G21   29.90F
6HR MIN TEMP:  29; 6HR MAX TEMP:  55;

CHEYENNE WY    CLOUDY    56  37  49 SE5       30.08R
6HR MIN TEMP:  42; 6HR MAX TEMP:  57;

SCOTTSBLUFF NE PTSUNNY   57  26  30 SE6       30.07S
6HR MIN TEMP:  45; 6HR MAX TEMP:  58;

OMAHA NE       PTSUNNY   74  44  34 S18G25    30.02F
6HR MIN TEMP:  54; 6HR MAX TEMP:  74;

DES MOINES IA  CLOUDY    73  43  33 S13       30.11F
6HR MIN TEMP:  49; 6HR MAX TEMP:  73;

DAVENPORT IA   SUNNY     68  29  23 S14G22    30.25F
6HR MIN TEMP:  37; 6HR MAX TEMP:  68;

CHICAGO IL     PTSUNNY   58  35  42 E7        30.33F
6HR MIN TEMP:  38; 6HR MAX TEMP:  58;

EAU CLAIRE WI  SUNNY     60  31  33 S23G30    30.13F
6HR MIN TEMP:  36; 6HR MAX TEMP:  60;

LA CROSSE WI   SUNNY     61  32  33 S17       30.16F
6HR MIN TEMP:  38; 6HR MAX TEMP:  61;

$$

  *****  SOME NATIONAL WEATHER *****

CITY           SKY/WX    TMP DP  RH WIND       PRES   REMARKS
LA GUARDIA NY  PTSUNNY   61  25  25 NW10      30.23F
6HR MIN TEMP:  46; 6HR MAX TEMP:  62;

RALEIGH NC     CLOUDY    50  46  86 NE12G20   30.17F
6HR MIN TEMP:  46; 6HR MAX TEMP:  50; 6HR PCP:  0.12;

ATLANTA GA     CLOUDY    63  53  70 NE25G32   30.08F
6HR MIN TEMP:  54; 6HR MAX TEMP:  63; 6HR PCP:  0.04;

NEW ORLEANS LA MOSUNNY   72  52  49 N8        30.15F
6HR MIN TEMP:  57; 6HR MAX TEMP:  72;

OKLAHOMA CITY  MOSUNNY   77  47  34 S15G21    30.13F
6HR MIN TEMP:  48; 6HR MAX TEMP:  77;

ALBUQUERQUE NM PTSUNNY   57  42  57 SW6       30.14F
6HR MIN TEMP:  48; 6HR MAX TEMP:  59; 6HR PCP: TRACE;

SALT LAKE CITY PTSUNNY   64  40  41 CALM      30.03S
6HR MIN TEMP:  46; 6HR MAX TEMP:  64;

LOS ANGELES CA PTSUNNY   65  54  67 SW12      30.02R
6HR MIN TEMP:  58; 6HR MAX TEMP:  66;

BOISE ID       SUNNY     64  22  20 SE14      29.95F



USA.gov is the U.S. government's official web portal to all federal, state and local government web resources and services.